Change the Weather History Date:

Saturday, March 15, 2014

  Actual Average (KRPD) Record (KRPD)
Temperature  
Mean Temperature 20 °F -  
Max Temperature 26 °F 34 °F 61 °F (2015)
Min Temperature 12 °F 17 °F -5 °F (1997)
Degree Days  
Heating Degree Days 45    
Moisture  
Dew Point 8 °F    
Average Humidity 57    
Maximum Humidity 74    
Minimum Humidity 40    
Precipitation  
Precipitation 0.00 in - - ()
Sea Level Pressure  
Sea Level Pressure 30.14 in    
Wind  
Wind Speed 10 mph (North)    
Max Wind Speed 14 mph    
Max Gust Speed 24 mph    
Visibility 10 miles    
Events      
Averages and records for this station are not official NWS values.
T = Trace of Precipitation, MM = Missing Value Source: NWS Daily Summary

Daily Weather History Graph

Daily Weather History Graph

Search for Another Location

Airport or City:

Trip Planner

Search our weather history database for the weather conditions in past years. The results will help you decide how hot, cold, wet, or windy it might be!

Date:

Astronomy

Mar. 15, 2014 Rise Set
Actual Time 7:20 AM CDT 7:13 PM CDT
Civil Twilight 6:50 AM CDT 7:43 PM CDT
Nautical Twilight 6:16 AM CDT 8:17 PM CDT
Astronomical Twilight 5:41 AM CDT 8:53 PM CDT
Moon 6:33 PM CDT (3/15) 6:34 AM CDT (3/15)
Length of Visible Light 12h 52m
Length of Day
11h 53m
Waxing Gibbous, 99% of the Moon is Illuminated
Mar 15
Waxing Gibbous
Mar 16
Full
Mar 23
Last Quarter
Mar 30
New
Apr 7
First Quarter

Hourly Weather History & Observations

Time (CDT) Temp. Windchill Dew Point Humidity Pressure Visibility Wind Dir Wind Speed Gust Speed Precip Events Conditions
12:15 AM 26.6 °F 15.2 °F 15.8 °F 64% 29.89 in 10.0 mi NNW 13.8 mph 24.2 mph N/A   Overcast
12:35 AM 26.6 °F 15.2 °F 15.8 °F 64% 29.90 in 10.0 mi NNW 13.8 mph 21.9 mph N/A   Overcast
12:55 AM 26.6 °F 17.5 °F 17.6 °F 69% 29.91 in 10.0 mi North 9.2 mph - N/A   Overcast
1:15 AM 24.8 °F 12.9 °F 14.0 °F 64% 29.92 in 10.0 mi NNW 13.8 mph - N/A   Overcast
1:35 AM 23.0 °F 12.4 °F 14.0 °F 68% 29.92 in 10.0 mi NNW 10.4 mph - N/A   Scattered Clouds
1:55 AM 23.0 °F 13.1 °F 12.2 °F 63% 29.93 in 10.0 mi NNW 9.2 mph - N/A   Clear
2:15 AM 21.2 °F 11.7 °F 12.2 °F 68% 29.94 in 10.0 mi NNW 8.1 mph - N/A   Clear
2:35 AM 21.2 °F 11.7 °F 12.2 °F 68% 29.94 in 10.0 mi NNW 8.1 mph - N/A   Clear
2:55 AM 19.4 °F 11.5 °F 12.2 °F 74% 29.95 in 10.0 mi NNW 5.8 mph - N/A   Clear
3:15 AM 19.4 °F 10.4 °F 10.4 °F 68% 29.95 in 10.0 mi NW 6.9 mph - N/A   Clear
3:35 AM 19.4 °F 10.4 °F 10.4 °F 68% 29.95 in 10.0 mi NNW 6.9 mph - N/A   Clear
3:55 AM 19.4 °F 10.4 °F 10.4 °F 68% 29.96 in 10.0 mi NW 6.9 mph - N/A   Clear
4:15 AM 17.6 °F 8.2 °F 10.4 °F 73% 29.96 in 10.0 mi NNW 6.9 mph - N/A   Clear
4:35 AM 17.6 °F 9.3 °F 10.4 °F 73% 29.96 in 10.0 mi North 5.8 mph - N/A   Clear
4:55 AM 17.6 °F 9.3 °F 10.4 °F 73% 29.97 in 10.0 mi NNW 5.8 mph - N/A   Clear
5:15 AM 17.6 °F 9.3 °F 10.4 °F 73% 29.98 in 10.0 mi NNW 5.8 mph - N/A   Clear
5:35 AM 17.6 °F 8.2 °F 10.4 °F 73% 29.99 in 10.0 mi NNW 6.9 mph - N/A   Clear
5:55 AM 17.6 °F 7.3 °F 10.4 °F 73% 30.00 in 10.0 mi NNW 8.1 mph - N/A   Clear
6:15 AM 17.6 °F 9.3 °F 10.4 °F 73% 30.01 in 10.0 mi NNW 5.8 mph - N/A   Clear
6:35 AM 17.6 °F 8.2 °F 10.4 °F 73% 30.01 in 10.0 mi NNW 6.9 mph - N/A   Clear
6:55 AM 17.6 °F 9.3 °F 10.4 °F 73% 30.02 in 10.0 mi NNW 5.8 mph - N/A   Clear
7:15 AM 17.6 °F 8.2 °F 10.4 °F 73% 30.03 in 10.0 mi NNW 6.9 mph - N/A   Clear
7:35 AM 17.6 °F 8.2 °F 10.4 °F 73% 30.05 in 10.0 mi North 6.9 mph - N/A   Clear
7:55 AM 17.6 °F 8.2 °F 10.4 °F 73% 30.05 in 10.0 mi North 6.9 mph - N/A   Clear
8:15 AM 17.6 °F 8.2 °F 10.4 °F 73% 30.07 in 10.0 mi NNW 6.9 mph - N/A   Clear
8:35 AM 19.4 °F 11.5 °F 10.4 °F 68% 30.07 in 10.0 mi North 5.8 mph - N/A   Clear
8:55 AM 19.4 °F 8.6 °F 8.6 °F 63% 30.08 in 10.0 mi NNE 9.2 mph - N/A   Clear
9:15 AM 19.4 °F 7.9 °F 8.6 °F 63% 30.09 in 10.0 mi NNE 10.4 mph - N/A   Clear
9:35 AM 21.2 °F 9.5 °F 8.6 °F 58% 30.09 in 10.0 mi NNE 11.5 mph - N/A   Clear
9:55 AM 21.2 °F 10.9 °F 8.6 °F 58% 30.10 in 10.0 mi NNE 9.2 mph - N/A   Clear
10:15 AM 21.2 °F 9.5 °F 8.6 °F 58% 30.11 in 10.0 mi NNE 11.5 mph - N/A   Clear
10:35 AM 23.0 °F 14.7 °F 8.6 °F 54% 30.12 in 10.0 mi North 6.9 mph - N/A   Clear
10:55 AM 23.0 °F 10.6 °F 8.6 °F 54% 30.13 in 10.0 mi NNE 13.8 mph - N/A   Clear
11:15 AM 23.0 °F 10.6 °F 8.6 °F 54% 30.13 in 10.0 mi NNE 13.8 mph 18.4 mph N/A   Clear
11:35 AM 23.0 °F 11.1 °F 8.6 °F 54% 30.14 in 10.0 mi NNE 12.7 mph - N/A   Clear
11:55 AM 23.0 °F 12.4 °F 6.8 °F 50% 30.14 in 10.0 mi NNE 10.4 mph - N/A   Clear
12:15 PM 24.8 °F 14.0 °F 8.6 °F 50% 30.15 in 10.0 mi NNE 11.5 mph - N/A   Clear
12:35 PM 24.8 °F 16.1 °F 6.8 °F 46% 30.16 in 10.0 mi NNE 8.1 mph - N/A   Clear
12:55 PM 24.8 °F 16.1 °F 8.6 °F 50% 30.16 in 10.0 mi NNE 8.1 mph - N/A   Clear
1:15 PM 24.8 °F 16.1 °F 6.8 °F 46% 30.17 in 10.0 mi NE 8.1 mph - N/A   Clear
1:35 PM 26.6 °F 19.1 °F 8.6 °F 47% 30.18 in 10.0 mi NNE 6.9 mph - N/A   Clear
1:55 PM 26.6 °F 18.2 °F 6.8 °F 43% 30.18 in 10.0 mi NNE 8.1 mph - N/A   Clear
2:15 PM 26.6 °F 19.1 °F 8.6 °F 47% 30.19 in 10.0 mi NNW 6.9 mph - N/A   Clear
2:35 PM 26.6 °F 17.5 °F 8.6 °F 47% 30.19 in 10.0 mi NNW 9.2 mph - N/A   Clear
2:55 PM 26.6 °F 16.2 °F 5.0 °F 40% 30.19 in 10.0 mi North 11.5 mph - N/A   Clear
3:15 PM 26.6 °F 16.8 °F 6.8 °F 43% 30.19 in 10.0 mi NNW 10.4 mph - N/A   Clear
3:35 PM 26.6 °F 18.2 °F 5.0 °F 40% 30.20 in 10.0 mi North 8.1 mph - N/A   Clear
3:55 PM 26.6 °F 16.8 °F 6.8 °F 43% 30.20 in 10.0 mi NNE 10.4 mph - N/A   Clear
4:15 PM 26.6 °F 16.2 °F 5.0 °F 40% 30.21 in 10.0 mi North 11.5 mph - N/A   Clear
4:35 PM 26.6 °F 18.2 °F 5.0 °F 40% 30.22 in 10.0 mi North 8.1 mph - N/A   Clear
4:55 PM 26.6 °F 17.5 °F 5.0 °F 40% 30.22 in 10.0 mi North 9.2 mph - N/A   Clear
5:15 PM 26.6 °F 17.5 °F 5.0 °F 40% 30.23 in 10.0 mi North 9.2 mph - N/A   Clear
5:35 PM 26.6 °F 16.8 °F 5.0 °F 40% 30.24 in 10.0 mi North 10.4 mph - N/A   Clear
5:55 PM 26.6 °F 16.8 °F 5.0 °F 40% 30.25 in 10.0 mi NNE 10.4 mph - N/A   Clear
6:15 PM 24.8 °F 14.6 °F 5.0 °F 43% 30.25 in 10.0 mi NE 10.4 mph - N/A   Clear
6:35 PM 24.8 °F 14.0 °F 3.2 °F 40% 30.27 in 10.0 mi NNE 11.5 mph - N/A   Clear
6:55 PM 23.0 °F 12.4 °F 3.2 °F 43% 30.28 in 10.0 mi NNE 10.4 mph - N/A   Clear
7:15 PM 23.0 °F 13.1 °F 3.2 °F 43% 30.29 in 10.0 mi NNE 9.2 mph - N/A   Clear
7:35 PM 21.2 °F 10.9 °F 5.0 °F 50% 30.30 in 10.0 mi NE 9.2 mph - N/A   Clear
7:55 PM 21.2 °F 11.7 °F 3.2 °F 46% 30.30 in 10.0 mi NNE 8.1 mph - N/A   Clear
8:15 PM 21.2 °F 10.1 °F 3.2 °F 46% 30.31 in 10.0 mi NNE 10.4 mph - N/A   Clear
8:35 PM 21.2 °F 11.7 °F 3.2 °F 46% 30.33 in 10.0 mi NNE 8.1 mph - N/A   Clear
8:55 PM 19.4 °F 9.5 °F 3.2 °F 49% 30.35 in 10.0 mi NNE 8.1 mph - N/A   Clear
9:15 PM 19.4 °F 7.2 °F 5.0 °F 54% 30.36 in 10.0 mi NE 11.5 mph - N/A   Clear
9:35 PM 17.6 °F 5.7 °F 5.0 °F 58% 30.37 in 10.0 mi NE 10.4 mph - N/A   Clear
9:55 PM 17.6 °F 6.4 °F 5.0 °F 58% 30.38 in 10.0 mi NE 9.2 mph - N/A   Clear
10:15 PM 17.6 °F 6.4 °F 3.2 °F 53% 30.38 in 10.0 mi NE 9.2 mph - N/A   Clear
10:35 PM 15.8 °F 4.2 °F 3.2 °F 58% 30.39 in 10.0 mi NE 9.2 mph - N/A   Clear
10:55 PM 14.0 °F 1.2 °F 3.2 °F 62% 30.40 in 10.0 mi ENE 10.4 mph - N/A   Clear
11:15 PM 14.0 °F 2.9 °F 3.2 °F 62% 30.40 in 10.0 mi ENE 8.1 mph - N/A   Clear
11:35 PM 14.0 °F 1.2 °F 1.4 °F 57% 30.40 in 10.0 mi ENE 10.4 mph 16.1 mph N/A   Clear
11:55 PM 12.2 °F 0.7 °F -0.4 °F 57% 30.40 in 10.0 mi ENE 8.1 mph - N/A   Clear